Hourly Weather Barnukovka

Today, 8 May, Saturday

Time Temperature Precipitation Wind Pressure Humidity
00:00 +13°C° 0 mm 1 mps 750 mmHg 78%
01:00 +12°C° 0.1 mm 1 mps 750 mmHg 81%
02:00 +12°C° 0.1 mm 1 mps 750 mmHg 84%
03:00 +11°C° 0 mm 0 mps 750 mmHg 85%
04:00 +11°C° 0 mm 0 mps 751 mmHg 84%
05:00 +12°C° 0 mm 1 mps 751 mmHg 83%
06:00 +12°C° 0 mm 1 mps 751 mmHg 82%
07:00 +14°C° 0 mm 2 mps 751 mmHg 73%
08:00 +15°C° 0 mm 2 mps 751 mmHg 64%
09:00 +17°C° 0 mm 3 mps 751 mmHg 54%
10:00 +18°C° 0 mm 4 mps 750 mmHg 52%
11:00 +19°C° 0 mm 4 mps 750 mmHg 50%
12:00 +20°C° 0 mm 5 mps 750 mmHg 48%
13:00 +21°C° 0 mm 5 mps 750 mmHg 47%
14:00 +21°C° 0 mm 5 mps 749 mmHg 45%
15:00 +21°C° 0 mm 4 mps 749 mmHg 44%
16:00 +20°C° 0 mm 4 mps 749 mmHg 50%
17:00 +19°C° 0 mm 4 mps 749 mmHg 55%
18:00 +18°C° 0 mm 3 mps 749 mmHg 61%
19:00 +17°C° 0 mm 3 mps 749 mmHg 63%
20:00 +14°C° 0 mm 3 mps 749 mmHg 64%
21:00 +14°C° 0 mm 2 mps 749 mmHg 66%
22:00 +14°C° 0 mm 2 mps 749 mmHg 65%
23:00 +14°C° 0 mm 2 mps 749 mmHg 63%

Tomorrow, 9 May, Sunday

Time Temperature Precipitation Wind Pressure Humidity
00:00 +14°C° 0 mm 2 mps 748 mmHg 62%
01:00 +13°C° 0 mm 2 mps 748 mmHg 62%
02:00 +13°C° 0 mm 2 mps 748 mmHg 62%
03:00 +13°C° 0 mm 2 mps 748 mmHg 61%
04:00 +13°C° 0 mm 2 mps 748 mmHg 62%
05:00 +13°C° 0 mm 2 mps 748 mmHg 63%
06:00 +14°C° 0 mm 2 mps 748 mmHg 64%
07:00 +14°C° 0 mm 3 mps 748 mmHg 63%
08:00 +17°C° 0 mm 4 mps 748 mmHg 62%
09:00 +17°C° 0 mm 5 mps 747 mmHg 62%
10:00 +19°C° 0 mm 5 mps 747 mmHg 59%
11:00 +20°C° 0 mm 5 mps 747 mmHg 57%
12:00 +21°C° 0 mm 5 mps 747 mmHg 55%
13:00 +22°C° 0 mm 6 mps 747 mmHg 51%
14:00 +22°C° 0 mm 6 mps 747 mmHg 48%
15:00 +23°C° 0 mm 6 mps 747 mmHg 44%
16:00 +22°C° 0 mm 5 mps 747 mmHg 49%
17:00 +21°C° 0 mm 4 mps 747 mmHg 55%
18:00 +20°C° 0 mm 3 mps 748 mmHg 60%
19:00 +17°C° 0 mm 4 mps 748 mmHg 68%
20:00 +14°C° 0 mm 4 mps 749 mmHg 75%
21:00 +12°C° 0 mm 5 mps 749 mmHg 83%
22:00 +12°C° 0 mm 5 mps 749 mmHg 82%
23:00 +10°C° 0 mm 6 mps 749 mmHg 82%

Day after tomorrow, 10 May, Monday

Time Temperature Precipitation Wind Pressure Humidity
00:00 +10°C° 0 mm 6 mps 749 mmHg 81%
01:00 +10°C° 0 mm 6 mps 750 mmHg 81%
02:00 +10°C° 0 mm 6 mps 750 mmHg 81%
03:00 +10°C° 0 mm 6 mps 750 mmHg 81%
04:00 +10°C° 0 mm 6 mps 750 mmHg 81%
05:00 +10°C° 0 mm 6 mps 750 mmHg 82%
06:00 +10°C° 0 mm 6 mps 751 mmHg 82%
07:00 +11°C° 0 mm 7 mps 751 mmHg 79%
08:00 +12°C° 0 mm 8 mps 751 mmHg 76%
09:00 +15°C° 0 mm 8 mps 751 mmHg 73%
10:00 +16°C° 0 mm 8 mps 751 mmHg 69%
11:00 +17°C° 0 mm 8 mps 752 mmHg 65%
12:00 +20°C° 0 mm 8 mps 752 mmHg 61%
13:00 +20°C° 0 mm 8 mps 752 mmHg 64%
14:00 +18°C° 0 mm 8 mps 752 mmHg 66%
15:00 +18°C° 0 mm 9 mps 752 mmHg 69%
16:00 +17°C° 0 mm 9 mps 752 mmHg 70%
17:00 +17°C° 0 mm 9 mps 752 mmHg 72%
18:00 +16°C° 0 mm 9 mps 753 mmHg 74%
19:00 +15°C° 0 mm 9 mps 753 mmHg 76%
20:00 +15°C° 0 mm 9 mps 753 mmHg 77%
21:00 +13°C° 0 mm 9 mps 754 mmHg 78%
22:00 +13°C° 0.1 mm 9 mps 754 mmHg 80%
23:00 +12°C° 0.1 mm 8 mps 754 mmHg 82%

11 May, Tuesday

Time Temperature Precipitation Wind Pressure Humidity
00:00 +12°C° 0.1 mm 8 mps 754 mmHg 84%
01:00 +12°C° 0.1 mm 8 mps 754 mmHg 85%
02:00 +12°C° 0.1 mm 8 mps 755 mmHg 85%
03:00 +12°C° 0.1 mm 7 mps 755 mmHg 86%
04:00 +12°C° 0 mm 7 mps 755 mmHg 86%
05:00 +14°C° 0 mm 7 mps 755 mmHg 85%
06:00 +14°C° 0 mm 7 mps 756 mmHg 85%
07:00 +15°C° 0 mm 6 mps 756 mmHg 80%
08:00 +16°C° 0 mm 6 mps 757 mmHg 75%
09:00 +17°C° 0 mm 5 mps 757 mmHg 70%
10:00 +20°C° 0 mm 6 mps 757 mmHg 63%
11:00 +21°C° 0 mm 6 mps 757 mmHg 56%
12:00 +23°C° 0 mm 6 mps 757 mmHg 49%
13:00 +23°C° 0 mm 6 mps 757 mmHg 49%
14:00 +23°C° 0 mm 6 mps 757 mmHg 50%
15:00 +23°C° 0 mm 6 mps 756 mmHg 50%
16:00 +21°C° 0 mm 5 mps 757 mmHg 61%
17:00 +19°C° 0 mm 4 mps 757 mmHg 72%
18:00 +16°C° 0 mm 2 mps 757 mmHg 84%
19:00 +16°C° 0 mm 2 mps 757 mmHg 85%
20:00 +15°C° 0 mm 2 mps 757 mmHg 86%
21:00 +15°C° 0 mm 2 mps 757 mmHg 87%
22:00 +14°C° 0 mm 3 mps 757 mmHg 83%
23:00 +16°C° 0 mm 3 mps 757 mmHg 79%

12 May, Wednesday

Time Temperature Precipitation Wind Pressure Humidity
00:00 +16°C° 0 mm 3 mps 757 mmHg 76%
01:00 +16°C° 0 mm 3 mps 757 mmHg 74%
02:00 +16°C° 0 mm 3 mps 757 mmHg 72%
03:00 +16°C° 0 mm 3 mps 757 mmHg 70%
04:00 +17°C° 0 mm 4 mps 757 mmHg 68%
05:00 +16°C° 0 mm 5 mps 757 mmHg 67%
06:00 +16°C° 0 mm 5 mps 757 mmHg 66%
07:00 +17°C° 0 mm 6 mps 757 mmHg 61%
08:00 +20°C° 0 mm 7 mps 757 mmHg 56%
09:00 +21°C° 0 mm 8 mps 757 mmHg 51%
10:00 +21°C° 0 mm 7 mps 757 mmHg 51%
11:00 +21°C° 0 mm 7 mps 757 mmHg 51%
12:00 +21°C° 0 mm 7 mps 757 mmHg 50%
13:00 +21°C° 0 mm 7 mps 757 mmHg 51%
14:00 +21°C° 0 mm 6 mps 757 mmHg 53%
15:00 +21°C° 0 mm 6 mps 757 mmHg 54%
16:00 +21°C° 0 mm 5 mps 757 mmHg 56%
17:00 +20°C° 0 mm 5 mps 757 mmHg 57%
18:00 +20°C° 0 mm 4 mps 757 mmHg 59%
19:00 +20°C° 0 mm 4 mps 756 mmHg 58%
20:00 +19°C° 0 mm 5 mps 756 mmHg 56%
21:00 +19°C° 0 mm 5 mps 756 mmHg 55%
22:00 +19°C° 0 mm 5 mps 756 mmHg 57%
23:00 +17°C° 0 mm 5 mps 756 mmHg 59%

13 May, Thursday

Time Temperature Precipitation Wind Pressure Humidity
00:00 +17°C° 0 mm 5 mps 756 mmHg 62%
01:00 +17°C° 0 mm 5 mps 756 mmHg 64%
02:00 +16°C° 0 mm 5 mps 756 mmHg 67%
03:00 +16°C° 0 mm 5 mps 756 mmHg 69%
04:00 +17°C° 0.1 mm 4 mps 756 mmHg 72%
05:00 +15°C° 0.1 mm 4 mps 756 mmHg 75%
06:00 +15°C° 0.1 mm 4 mps 756 mmHg 79%
07:00 +17°C° 0.1 mm 4 mps 756 mmHg 76%
08:00 +17°C° 0.1 mm 4 mps 756 mmHg 74%
09:00 +17°C° 0.1 mm 5 mps 756 mmHg 72%
10:00 +19°C° 0 mm 6 mps 756 mmHg 64%
11:00 +21°C° 0 mm 6 mps 756 mmHg 57%
12:00 +23°C° 0 mm 7 mps 756 mmHg 49%
13:00 +23°C° 0 mm 7 mps 756 mmHg 49%
14:00 +23°C° 0 mm 7 mps 756 mmHg 48%
15:00 +23°C° 0 mm 6 mps 756 mmHg 48%
16:00 +22°C° 0 mm 6 mps 756 mmHg 52%
17:00 +21°C° 0 mm 5 mps 756 mmHg 56%
18:00 +20°C° 0 mm 5 mps 756 mmHg 61%
19:00 +19°C° 0.1 mm 4 mps 756 mmHg 64%
20:00 +18°C° 0.1 mm 4 mps 756 mmHg 68%
21:00 +17°C° 0.1 mm 4 mps 756 mmHg 71%
22:00 +17°C° 0.1 mm 4 mps 756 mmHg 72%
23:00 +16°C° 0.1 mm 3 mps 756 mmHg 73%
Show more